Location: Bukit Lungun
(2.6833°N, 113.9667°E)
Time: 10:39:30
(UTC+00:00)

Cosmos 1461 - Pass Details

Date: 02 March 2021
Orbit: 505 x 658 km, 65.0° (Epoch: 20 April)

Event Time Altitude Azimuth Distance (km) Brightness Sun altitude
Exits shadow 21:18:06 26° 210° (SSW) 1,070 4.0 -19.7°
Drops below altitude 10° 21:20:19 10° 184° (S) 1,763 5.4 -19.1°
Sets 21:22:36 0° 174° (S) 2,634 6.5 -18.6°
